Needles, CA

11:50 PM PDT on April 21, 2018 (GMT -0700)
Needles

Weather History for KEED - February, 2012

Change the Weather History Date:

Tuesday, February 21, 2012

  Actual Average Record
Temperature  
Mean Temperature 59 °F 59 °F  
Max Temperature 73 °F 71 °F 88 °F (1977)
Min Temperature 45 °F 48 °F 28 °F (1953)
Degree Days  
Heating Degree Days 6    
Cooling Degree Days 0    
Growing Degree Days 9 (Base 50)    
Moisture  
Dew Point 13 °F    
Average Humidity 17    
Maximum Humidity 24    
Minimum Humidity 9    
Precipitation  
Precipitation 0.00 in 0.03 in 0.34 in (1913)
Month to date precipitation 0.59  
Year to date precipitation 1.31  
Sea Level Pressure  
Sea Level Pressure 30.10 in    
Wind  
Wind Speed 7 mph (NNW)    
Max Wind Speed 16 mph    
Max Gust Speed -    
Visibility 10 miles    
Events      
T = Trace of Precipitation, MM = Missing Value Source: NWS Daily Summary

Daily Weather History Graph

Daily Weather History Graph

Search for Another Location

Airport or City:

Astronomy

Feb. 21, 2012 Rise Set
Actual Time 6:17 AM PST 5:26 PM PST
Civil Twilight 5:52 AM PST 5:52 PM PST
Nautical Twilight 5:22 AM PST 6:21 PM PST
Astronomical Twilight 4:53 AM PST 6:51 PM PST
Moon 5:50 AM PST (2/21) 5:34 PM PST (2/21)
Length of Visible Light 12h 00m
Length of Day
11h 08m
Waning Crescent, 0% of the Moon is Illuminated
Feb 21
Waning Crescent
Feb 21
New
Feb 29
First Quarter
Mar 8
Full
Mar 14
Last Quarter

Hourly Weather History & Observations

Time (PST) Temp. Windchill Dew Point Humidity Pressure Visibility Wind Dir Wind Speed Gust Speed Precip Events Conditions
12:56 AM 48.9 °F - 10.0 °F 21% 30.08 in 10.0 mi WNW 8.1 mph - N/A   Clear
1:56 AM 50.0 °F - 10.9 °F 21% 30.06 in 10.0 mi West 6.9 mph - N/A   Clear
2:56 AM 48.9 °F - 10.0 °F 21% 30.09 in 10.0 mi North 4.6 mph - N/A   Clear
3:56 AM 45.0 °F 41.8 °F 10.0 °F 24% 30.10 in 10.0 mi WNW 5.8 mph - N/A   Clear
4:56 AM 46.0 °F 43.9 °F 10.9 °F 24% 30.12 in 10.0 mi NW 4.6 mph - N/A   Clear
6:56 AM 48.0 °F - 12.9 °F 24% 30.16 in 10.0 mi NW 3.5 mph - N/A   Clear
7:56 AM 54.0 °F - 12.9 °F 20% 30.17 in 10.0 mi NW 3.5 mph - N/A   Clear
8:56 AM 57.9 °F - 14.0 °F 18% 30.17 in 10.0 mi North 8.1 mph - N/A   Clear
9:56 AM 61.0 °F - 14.0 °F 16% 30.16 in 10.0 mi North 8.1 mph - N/A   Clear
10:56 AM 64.9 °F - 15.1 °F 15% 30.15 in 10.0 mi NNE 4.6 mph - N/A   Clear
12:56 PM 72.0 °F - 10.9 °F 10% 30.10 in 10.0 mi NNE 16.1 mph - N/A   Clear
1:56 PM 73.9 °F - 10.9 °F 9% 30.08 in 10.0 mi NNE 11.5 mph - N/A   Clear
2:56 PM 73.9 °F - 10.9 °F 9% 30.06 in 10.0 mi North 10.4 mph - N/A   Clear
3:56 PM 73.0 °F - 12.9 °F 10% 30.06 in 10.0 mi NNE 11.5 mph - N/A   Clear
4:56 PM 70.0 °F - 18.0 °F 14% 30.06 in 10.0 mi NNE 9.2 mph - N/A   Clear
5:56 PM 66.0 °F - 17.1 °F 15% 30.08 in 10.0 mi NNW 5.8 mph - N/A   Clear
6:56 PM 66.0 °F - 15.1 °F 14% 30.08 in 10.0 mi North 11.5 mph - N/A   Clear
7:56 PM 64.0 °F - 15.1 °F 15% 30.08 in 10.0 mi NW 9.2 mph - N/A   Clear
8:56 PM 62.1 °F - 15.1 °F 16% 30.09 in 10.0 mi NNW 8.1 mph - N/A   Clear
9:56 PM 60.1 °F - 15.1 °F 17% 30.10 in 10.0 mi NW 4.6 mph - N/A   Clear
10:56 PM 60.1 °F - 15.1 °F 17% 30.09 in 10.0 mi NNW 9.2 mph - N/A   Clear
11:56 PM 55.9 °F - 15.1 °F 20% 30.09 in 10.0 mi SW 4.6 mph - N/A   Clear